TimeEDT,TemperatureF,Dew PointF,Humidity,Sea Level PressureIn,VisibilityMPH,Wind Direction,Wind SpeedMPH,Gust SpeedMPH,PrecipitationIn,Events,Conditions,WindDirDegrees,DateUTC
12:00 AM,59.0,57.2,94,29.95,9.0,ENE,11.5,-,N/A,,Overcast,70,2012-10-03 04:00:00
12:54 AM,60.8,57.2,88,29.95,8.0,ENE,15.0,-,N/A,,Overcast,70,2012-10-03 04:54:00
12:58 AM,60.8,57.2,88,29.95,8.0,ENE,12.7,-,N/A,,Overcast,70,2012-10-03 04:58:00
1:00 AM,60.8,57.2,88,29.95,8.0,ENE,12.7,-,N/A,,Overcast,70,2012-10-03 05:00:00
2:00 AM,61,58,88,29.95,9,ENE,11.5,,,,Overcast,60,2012-10-03 06:00:00
2:00 AM,60.8,59.0,94,29.95,9.0,ENE,12.7,-,N/A,,Overcast,60,2012-10-03 06:00:00
2:14 AM,60.8,57.2,88,29.95,9.0,ENE,12.7,-,N/A,,Overcast,70,2012-10-03 06:14:00
2:18 AM,60.8,57.2,88,29.95,9.0,ENE,12.7,-,N/A,,Overcast,60,2012-10-03 06:18:00
3:00 AM,60.8,57.2,88,29.95,7.0,ENE,15.0,-,N/A,,Overcast,60,2012-10-03 07:00:00
4:00 AM,60.8,59.0,94,29.95,6.0,NE,12.7,-,N/A,,Overcast,50,2012-10-03 08:00:00
5:00 AM,62.6,59.0,88,29.97,9.0,NE,11.5,-,N/A,,Overcast,50,2012-10-03 09:00:00
6:00 AM,62.6,57.2,82,29.98,9.0,ENE,12.7,-,N/A,,Overcast,60,2012-10-03 10:00:00
7:00 AM,62.6,59.0,88,29.99,9.0,NE,13.8,-,N/A,,Overcast,50,2012-10-03 11:00:00
8:00 AM,62,59,87,29.99,7,ENE,16.1,,,,Overcast,60,2012-10-03 12:00:00
8:00 AM,62.6,59.0,88,29.99,7.0,ENE,16.1,-,N/A,,Overcast,60,2012-10-03 12:00:00
9:00 AM,62.6,59.0,88,30.00,7.0,ENE,16.1,-,N/A,,Overcast,60,2012-10-03 13:00:00
10:00 AM,60.8,57.2,88,30.03,7.0,ENE,11.5,-,N/A,,Overcast,70,2012-10-03 14:00:00
10:31 AM,60.8,59.0,94,30.03,5.0,ENE,10.4,-,N/A,,Overcast,70,2012-10-03 14:31:00
10:42 AM,60.8,59.0,94,30.04,5.0,ENE,10.4,-,N/A,,Overcast,70,2012-10-03 14:42:00
11:00 AM,60.8,59.0,94,30.04,3.0,ENE,10.4,-,N/A,,Overcast,70,2012-10-03 15:00:00
11:16 AM,60.8,59.0,94,30.03,2.2,ENE,10.4,-,N/A,,Overcast,70,2012-10-03 15:16:00
11:17 AM,60.8,59.0,94,30.03,1.8,ENE,10.4,-,N/A,,Overcast,70,2012-10-03 15:17:00
11:23 AM,60.8,59.0,94,30.03,2.2,ENE,10.4,-,N/A,,Overcast,70,2012-10-03 15:23:00
11:51 AM,60.8,60.8,100,30.03,3.0,ENE,13.8,-,N/A,,Overcast,60,2012-10-03 15:51:00
11:57 AM,60.8,60.8,100,30.03,2.2,ENE,13.8,-,N/A,,Overcast,60,2012-10-03 15:57:00
12:00 PM,60.8,60.8,100,30.03,2.2,ENE,13.8,-,N/A,,Overcast,60,2012-10-03 16:00:00
12:27 PM,60.8,59.0,94,30.03,2.5,ENE,10.4,-,N/A,Rain,Light Rain,70,2012-10-03 16:27:00
12:32 PM,60.8,59.0,94,30.03,2.0,ENE,10.4,-,N/A,Rain,Light Rain,60,2012-10-03 16:32:00
12:55 PM,60.8,60.8,100,30.03,1.2,ENE,9.2,-,N/A,,Overcast,70,2012-10-03 16:55:00
1:00 PM,60.8,60.8,100,30.03,1.0,ENE,9.2,-,N/A,,Overcast,70,2012-10-03 17:00:00
2:00 PM,61,60,95,30.02,0,East,6.9,,,Fog,Fog,80,2012-10-03 18:00:00
2:00 PM,60.8,59.0,94,30.02,0.4,East,5.8,-,N/A,Fog,Fog,80,2012-10-03 18:00:00
2:29 PM,60.8,60.8,100,30.02,0.1,East,6.9,-,N/A,Fog-Rain,Light Rain,90,2012-10-03 18:29:00
3:00 PM,60.8,60.8,100,30.03,0.1,ENE,8.1,-,N/A,Fog-Rain,Light Rain,70,2012-10-03 19:00:00
3:20 PM,60.8,60.8,100,30.03,0.2,East,6.9,-,N/A,Fog,Fog,80,2012-10-03 19:20:00
4:00 PM,62.6,60.8,94,30.04,0.2,ENE,5.8,-,N/A,Fog,Fog,60,2012-10-03 20:00:00
4:08 PM,62.6,60.8,94,30.04,0.2,ENE,5.8,-,N/A,Fog,Fog,60,2012-10-03 20:08:00
4:43 PM,62.6,60.8,94,30.03,0.2,ENE,8.1,-,N/A,Fog,Fog,70,2012-10-03 20:43:00
5:00 PM,62.6,60.8,94,30.03,0.8,ENE,8.1,-,N/A,,Mist,70,2012-10-03 21:00:00
5:04 PM,62.6,60.8,94,30.03,1.2,East,8.1,-,N/A,,Unknown,80,2012-10-03 21:04:00
5:10 PM,62.6,62.6,100,30.03,1.0,East,8.1,-,N/A,,Overcast,80,2012-10-03 21:10:00
6:00 PM,60.8,60.8,100,30.05,0.1,ENE,6.9,-,N/A,Fog,Fog,70,2012-10-03 22:00:00
7:00 PM,60.8,60.8,100,30.06,0.1,ENE,8.1,-,N/A,Fog,Fog,60,2012-10-03 23:00:00
8:00 PM,62,61,95,30.06,0,ENE,9.2,,,Fog,Fog,70,2012-10-04 00:00:00
8:00 PM,62.6,60.8,94,30.06,0.4,East,9.2,-,N/A,Fog,Fog,80,2012-10-04 00:00:00
9:00 PM,62.6,60.8,94,30.08,0.4,ENE,10.4,-,N/A,Fog,Fog,70,2012-10-04 01:00:00
9:34 PM,60.8,60.8,100,30.09,1.2,East,6.9,-,N/A,,Mist,90,2012-10-04 01:34:00
9:47 PM,60.8,60.8,100,30.08,1.0,East,9.2,-,N/A,,Overcast,80,2012-10-04 01:47:00
10:00 PM,60.8,60.8,100,30.09,0.8,ENE,6.9,-,N/A,,Mist,70,2012-10-04 02:00:00
11:00 PM,60.8,60.8,100,30.10,0.2,Calm,Calm,-,N/A,Fog,Fog,0,2012-10-04 03:00:00